54,2013-07-17 19:27:50,1374089270,55.20787,-10.10259,2,3,2013-07-17 19:26:00,1374089160,19.56,1,15.6,0,4095,55.202,-10.0748,30,48
55,2013-07-17 20:06:12,1374091572,55.18217,-10.16442,2,2,2013-07-17 20:00:00,1374091200,17.07,1,15.6,30,4095,55.202,-10.0748,30,48
56,2013-07-17 20:42:27,1374093747,55.3617,-13.37788,219,3,2013-07-17 20:41:00,1374093660,15.16,4,15.6,0,4095,55.1822,-10.082,14,44
57,2013-07-17 21:06:19,1374095179,55.18737,-10.10259,2,4,2013-07-17 21:00:00,1374094800,15.16,6,15.6,30,0,55.185,-10.0774,12,40
58,2013-07-17 22:06:12,1374098772,55.21303,-10.04073,10,2,2013-07-17 22:00:00,1374098400,15.14,6,15.6,30,60,55.185,-10.0774,12,40
59,2013-07-17 23:06:09,1374102369,55.16348,-10.02979,3,1,2013-07-17 23:00:00,1374102000,15.13,6,15.6,30,120,55.185,-10.0774,12,40
60,2013-07-18 00:06:13,1374105973,55.16348,-10.02979,2,6,2013-07-18 00:00:00,1374105600,15.12,4,15.6,30,0,55.1858,-10.0316,54,44
61,2013-07-18 01:06:10,1374109570,55.21303,-10.04073,8,1,2013-07-18 01:00:00,1374109200,15.12,5,15.6,30,60,55.1858,-10.0316,54,44
62,2013-07-18 02:06:09,1374113169,55.1686,-9.96798,2,1,2013-07-18 02:00:00,1374112800,15.11,5,15.6,30,120,55.1858,-10.0316,54,44
63,2013-07-18 03:06:12,1374116772,55.15833,-10.09158,2,1,2013-07-18 03:00:00,1374116400,15.11,5,15.6,30,0,55.1776,-10.026,64,44
64,2013-07-18 04:06:09,1374120369,55.15833,-10.09158,2,0,2013-07-18 04:00:00,1374120000,15.11,5,15.6,30,60,55.1776,-10.026,64,44
65,2013-07-18 05:06:10,1374123970,55.1686,-9.96798,3,3,2013-07-18 05:00:00,1374123600,15.12,6,15.6,30,120,55.1776,-10.026,64,44
66,2013-07-18 06:06:14,1374127574,55.21816,-9.97886,2,1,2013-07-18 06:00:00,1374127200,15.13,5,15.6,30,0,55.1884,-10.0424,34,48
67,2013-07-18 07:06:09,1374131169,55.20787,-10.10259,2,1,2013-07-18 07:00:00,1374130800,15.15,4,15.6,30,60,55.1884,-10.0424,34,48
68,2013-07-18 08:06:11,1374134771,55.20787,-10.10259,4,0,2013-07-18 08:00:00,1374134400,15.16,5,15.6,30,120,55.1884,-10.0424,34,48
69,2013-07-18 09:06:09,1374138369,55.19253,-10.04073,3,1,2013-07-18 09:00:00,1374138000,15.19,5,15.6,30,0,55.2058,-10.0344,34,44
70,2013-07-18 10:06:09,1374141969,55.20159,-12.80148,193,1,2013-07-18 10:00:00,1374141600,15.22,4,15.6,30,60,55.2058,-10.0344,34,44
71,2013-07-18 11:06:11,1374145571,55.21816,-9.97886,2,2,2013-07-18 11:00:00,1374145200,15.24,4,15.6,30,120,55.2058,-10.0344,34,44
72,2013-07-18 12:06:14,1374149174,55.24153,-10.75488,97,4,2013-07-18 12:00:00,1374148800,15.27,5,15.6,30,0,55.2138,-9.9982,34,44
73,2013-07-18 13:06:10,1374152770,55.19766,-9.97886,4,2,2013-07-18 13:00:00,1374152400,15.33,5,15.6,30,60,55.2138,-9.9982,34,44
74,2013-07-18 14:06:10,1374156370,55.23173,-10.17551,65,1,2013-07-18 14:00:00,1374156000,15.39,5,15.6,30,120,55.2138,-9.9982,34,44
75,2013-07-18 15:06:09,1374159969,55.1686,-9.96798,5,4,2013-07-18 15:00:00,1374159600,15.46,5,15.6,30,0,55.2086,-9.97999999999999,66,44
76,2013-07-18 16:06:09,1374163569,55.08231,-7.7313,175,4,2013-07-18 16:00:00,1374163200,15.51,4,15.6,30,60,55.2086,-9.97999999999999,66,44
77,2013-07-18 17:06:11,1374167171,55.1686,-9.96798,6,1,2013-07-18 17:00:00,1374166800,15.57,4,15.6,30,120,55.2086,-9.97999999999999,66,44
78,2013-07-18 18:06:13,1374170773,55.0967,-6.47175,232,2,2013-07-18 18:00:00,1374170400,15.46,4,15.6,30,0,55.2124,-9.99199999999999,34,48
79,2013-07-18 19:06:09,1374174369,55.24723,-9.98976,6,2,2013-07-18 19:00:00,1374174000,15.43,5,15.6,30,60,55.2124,-9.99199999999999,34,48
80,2013-07-18 20:06:09,1374177969,55.24723,-9.98976,13,2,2013-07-18 20:00:00,1374177600,15.45,4,15.6,30,120,55.2124,-9.99199999999999,34,48
81,2013-07-18 21:06:12,1374181572,55.24209,-10.0517,4,3,2013-07-18 21:00:00,1374181200,15.48,5,15.6,30,0,55.2206,-10.0026,16,44
82,2013-07-18 22:06:15,1374185175,55.21303,-10.04073,6,2,2013-07-18 22:00:00,1374184800,15.44,5,15.6,30,60,55.2206,-10.0026,16,44
83,2013-07-18 23:06:09,1374188769,55.25234,-9.92779,3,1,2013-07-18 23:00:00,1374188400,15.48,4,15.6,30,120,55.2206,-10.0026,16,44
84,2013-07-19 00:06:10,1374192370,55.21816,-9.97886,4,1,2013-07-19 00:00:00,1374192000,15.49,4,15.6,30,0,55.236,-9.96979999999999,34,48
85,2013-07-19 01:06:11,1374195971,55.48648,-5.89963,267,6,2013-07-19 01:00:00,1374195600,15.43,5,15.6,30,60,55.236,-9.96979999999999,34,48
86,2013-07-19 02:06:12,1374199572,55.21816,-9.97886,2,4,2013-07-19 02:00:00,1374199200,15.39,5,15.6,30,120,55.236,-9.96979999999999,34,48
87,2013-07-19 03:06:13,1374203173,55.22326,-9.91696,10,5,2013-07-19 03:00:00,1374202800,15.37,4,15.6,30,0,55.2358,-9.94979999999998,34,48
88,2013-07-19 04:06:12,1374206772,55.22326,-9.91696,3,6,2013-07-19 04:00:00,1374206400,15.37,5,15.6,30,60,55.2358,-9.94979999999998,34,48
89,2013-07-19 05:06:09,1374210369,55.24723,-9.98976,4,0,2013-07-19 05:00:00,1374210000,15.35,6,15.6,30,120,55.2358,-9.94979999999998,34,48
90,2013-07-19 06:06:13,1374213973,55.22326,-9.91696,3,1,2013-07-19 06:00:00,1374213600,15.35,5,15.6,30,0,55.2332,-9.9588,34,44
91,2013-07-19 07:06:09,1374217569,55.21816,-9.97886,2,0,2013-07-19 07:00:00,1374217200,15.33,7,15.6,30,60,55.2332,-9.9588,34,44
92,2013-07-19 08:06:10,1374221170,55.2677,-9.98976,11,1,2013-07-19 08:00:00,1374220800,15.33,7,15.6,30,120,55.2332,-9.9588,34,44
93,2013-07-19 09:06:09,1374224769,55.22326,-9.91696,2,0,2013-07-19 09:00:00,1374224400,15.36,5,15.6,30,0,55.2402,-9.97379999999998,82,48
94,2013-07-19 10:06:09,1374228369,55.14867,-14.99616,325,3,2013-07-19 10:00:00,1374228000,15.4,5,15.6,30,60,55.2402,-9.97379999999998,82,48
95,2013-07-19 11:06:12,1374231972,55.29679,-10.00068,8,3,2013-07-19 11:00:00,1374231600,15.45,5,15.6,30,120,55.2402,-9.97379999999998,82,48
96,2013-07-19 12:06:13,1374235573,55.38479,-12.79587,192,3,2013-07-19 12:00:00,1374235200,15.51,6,15.6,30,0,55.2506,-9.9624,58,48
97,2013-07-19 13:06:09,1374239169,55.21816,-9.97886,6,2,2013-07-19 13:00:00,1374238800,15.57,6,15.6,30,60,55.2506,-9.9624,58,48
98,2013-07-19 14:06:11,1374242771,55.24723,-9.98976,3,2,2013-07-19 14:00:00,1374242400,15.66,6,15.6,30,120,55.2506,-9.9624,58,48
99,2013-07-19 15:06:09,1374246369,55.22326,-9.91696,2,2,2013-07-19 15:00:00,1374246000,15.71,6,15.6,30,0,55.2474,-9.95059999999998,64,44
100,2013-07-19 16:06:09,1374249969,55.20321,-9.15234,78,2,2013-07-19 16:00:00,1374249600,15.73,5,15.6,30,60,55.2474,-9.95059999999998,64,44
101,2013-07-19 17:06:09,1374253569,55.21816,-9.97886,2,1,2013-07-19 17:00:00,1374253200,15.78,5,15.6,30,120,55.2474,-9.95059999999998,64,44
102,2013-07-19 18:06:09,1374257169,55.23765,-8.96609,96,1,2013-07-19 18:00:00,1374256800,15.79,5,15.6,30,0,55.2488,-9.97039999999998,34,48
103,2013-07-19 19:06:10,1374260770,55.2677,-9.98976,3,2,2013-07-19 19:00:00,1374260400,15.8,6,15.6,30,60,55.2488,-9.97039999999998,34,48
104,2013-07-19 20:06:11,1374264371,55.21816,-9.97886,13,8,2013-07-19 20:00:00,1374264000,15.82,5,15.6,30,120,55.2488,-9.97039999999998,34,48
105,2013-07-19 21:06:15,1374267975,55.27281,-9.92779,2,3,2013-07-19 21:00:00,1374267600,15.84,6,15.6,30,0,55.2658,-9.97879999999998,12,44
106,2013-07-19 22:06:11,1374271571,55.24723,-9.98976,4,2,2013-07-19 22:00:00,1374271200,15.85,7,15.6,30,60,55.2658,-9.97879999999998,12,44
107,2013-07-19 23:06:13,1374275173,55.24723,-9.98976,10,3,2013-07-19 23:00:00,1374274800,15.82,7,15.6,30,120,55.2658,-9.97879999999998,12,44
108,2013-07-20 00:06:12,1374278772,55.25234,-9.92779,4,2,2013-07-20 00:00:00,1374278400,15.83,6,15.6,30,0,55.274,-9.95499999999998,94,44
109,2013-07-20 01:06:09,1374282369,55.30698,-9.8766,4,1,2013-07-20 01:00:00,1374282000,15.81,5,15.6,30,60,55.274,-9.95499999999998,94,44
110,2013-07-20 02:06:10,1374285970,55.25234,-9.92779,3,2,2013-07-20 02:00:00,1374285600,15.8,6,15.6,30,120,55.274,-9.95499999999998,94,44
111,2013-07-20 03:06:09,1374289569,55.3019,-9.93865,7,1,2013-07-20 03:00:00,1374289200,15.78,5,15.6,30,0,55.274,-9.9288,10,44
112,2013-07-20 04:06:10,1374293170,55.25234,-9.92779,2,1,2013-07-20 04:00:00,1374292800,15.77,5,15.6,30,60,55.274,-9.9288,10,44
113,2013-07-20 05:06:12,1374296772,55.24723,-9.98976,3,7,2013-07-20 05:00:00,1374296400,15.76,6,15.6,30,120,55.274,-9.9288,10,44
114,2013-07-20 06:06:09,1374300369,55.24723,-9.98976,2,1,2013-07-20 06:00:00,1374300000,15.74,6,15.6,30,0,55.2676,-9.93519999999998,82,48
115,2013-07-20 07:06:11,1374303971,55.3019,-9.93865,12,1,2013-07-20 07:00:00,1374303600,15.74,5,15.6,30,60,55.2676,-9.93519999999998,82,48
116,2013-07-20 08:06:26,1374307586,55.27788,-9.86581,2,0,2013-07-20 08:00:00,1374307200,15.83,5,15.6,30,120,55.2676,-9.93519999999998,82,48
117,2013-07-20 09:06:15,1374311175,55.29679,-10.00068,2,5,2013-07-20 09:00:00,1374310800,15.86,8,15.6,30,0,55.279,-9.96379999999999,64,44
118,2013-07-20 10:06:13,1374314773,55.24723,-9.98976,8,2,2013-07-20 10:00:00,1374314400,15.93,5,15.6,30,60,55.279,-9.96379999999999,64,44
119,2013-07-20 11:06:09,1374318369,55.3019,-9.93865,3,2,2013-07-20 11:00:00,1374318000,16.19,5,15.6,30,120,55.279,-9.96379999999999,64,44
120,2013-07-20 12:06:11,1374321971,55.58278,-15.36094,352,2,2013-07-20 12:00:00,1374321600,16.42,5,15.6,30,0,55.2898,-9.94539999999998,58,48
121,2013-07-20 13:06:09,1374325569,55.3019,-9.93865,6,2,2013-07-20 13:00:00,1374325200,16.42,5,15.6,30,60,55.2898,-9.94539999999998,58,48
122,2013-07-20 14:06:10,1374329170,55.46743,-14.31229,10,2,2013-07-20 14:00:00,1374328800,16.56,5,15.6,30,120,55.2898,-9.94539999999998,58,48
123,2013-07-20 15:06:09,1374332769,55.30698,-9.8766,3,1,2013-07-20 15:00:00,1374332400,16.81,6,15.6,30,0,55.2874,-9.91459999999998,34,44
124,2013-07-20 16:06:09,1374336369,55.3764,-11.37182,115,1,2013-07-20 16:00:00,1374336000,17.01,5,15.6,30,60,55.2874,-9.91459999999998,34,44
125,2013-07-20 17:06:09,1374339969,55.3019,-9.93865,2,1,2013-07-20 17:00:00,1374339600,17.04,5,15.6,30,120,55.2874,-9.91459999999998,34,44
126,2013-07-20 18:06:09,1374343569,55.22371,-9.15234,193,1,2013-07-20 18:00:00,1374343200,17.1,5,15.6,30,0,55.282,-9.916,34,48
127,2013-07-20 19:06:09,1374347169,55.25234,-9.92779,5,1,2013-07-20 19:00:00,1374346800,17.16,7,15.6,30,60,55.282,-9.916,34,48
128,2013-07-20 20:06:09,1374350769,55.24425,-8.45923,115,1,2013-07-20 20:00:00,1374350400,17.06,5,15.6,30,120,55.282,-9.916,34,48
129,2013-07-20 21:06:15,1374354375,55.29679,-10.00068,2,3,2013-07-20 21:00:00,1374354000,17,5,15.6,30,0,55.292,-9.9522,34,48
130,2013-07-20 22:06:07,1374357967,55.29679,-10.00068,3,1,2013-07-20 22:00:00,1374357600,17.02,5,15.6,30,60,55.292,-9.9522,34,48
131,2013-07-20 23:06:09,1374361569,55.27281,-9.92779,2,11,2013-07-20 23:00:00,1374361200,17.03,5,15.6,30,120,55.292,-9.9522,34,48
132,2013-07-21 00:06:14,1374365174,55.27281,-9.92779,2,5,2013-07-21 00:00:00,1374364800,16.98,5,15.6,30,0,55.31,-9.91979999999998,52,44
133,2013-07-21 01:06:09,1374368769,55.35654,-9.88742,23,1,2013-07-21 01:00:00,1374368400,16.91,5,15.6,30,60,55.31,-9.91979999999998,52,44
134,2013-07-21 02:06:09,1374372369,55.30698,-9.8766,2,1,2013-07-21 02:00:00,1374372000,16.73,4,15.6,30,120,55.31,-9.91979999999998,52,44
135,2013-07-21 03:06:13,1374375973,55.44108,-7.28968,176,5,2013-07-21 03:00:00,1374375600,16.44,5,15.6,30,0,55.3128,-9.87219999999999,14,44
136,2013-07-21 04:06:15,1374379575,55.3019,-9.93865,2,4,2013-07-21 04:00:00,1374379200,16.39,4,15.6,30,60,55.3128,-9.87219999999999,14,44
137,2013-07-21 05:06:09,1374383169,55.31204,-9.81452,3,1,2013-07-21 05:00:00,1374382800,16.41,5,15.6,30,120,55.3128,-9.87219999999999,14,44
138,2013-07-21 06:06:14,1374386774,55.31204,-9.81452,2,1,2013-07-21 06:00:00,1374386400,16.34,5,15.6,30,0,55.2984,-9.8544,64,48
139,2013-07-21 07:06:10,1374390370,55.3019,-9.93865,3,6,2013-07-21 07:00:00,1374390000,16.4,4,15.6,30,60,55.2984,-9.8544,64,48
140,2013-07-21 08:06:09,1374393969,55.27788,-9.86581,4,0,2013-07-21 08:00:00,1374393600,16.39,5,15.6,30,120,55.2984,-9.8544,64,48
141,2013-07-21 09:06:15,1374397575,55.27281,-9.92779,4,14,2013-07-21 09:00:00,1374397200,16.55,5,15.6,30,0,55.2972,-9.892,34,48
142,2013-07-21 10:06:13,1374401173,55.32743,-9.8766,6,4,2013-07-21 10:00:00,1374400800,16.66,5,15.6,30,60,55.2972,-9.892,34,48
143,2013-07-21 11:06:10,1374404770,55.30698,-9.8766,2,3,2013-07-21 11:00:00,1374404400,16.77,5,15.6,30,120,55.2972,-9.892,34,48
144,2013-07-21 12:06:12,1374408372,55.35145,-9.94954,4,2,2013-07-21 12:00:00,1374408000,16.89,5,15.6,30,0,55.316,-9.91499999999999,58,44
145,2013-07-21 13:06:11,1374411971,55.3019,-9.93865,4,2,2013-07-21 13:00:00,1374411600,16.86,7,15.6,30,60,55.316,-9.91499999999999,58,44
146,2013-07-21 14:06:10,1374415570,55.33248,-9.81452,4,1,2013-07-21 14:00:00,1374415200,17.14,5,15.6,30,120,55.316,-9.91499999999999,58,44
147,2013-07-21 15:06:13,1374419173,55.30698,-9.8766,4,5,2013-07-21 15:00:00,1374418800,17.08,5,15.6,30,0,55.3366,-9.8758,34,48
148,2013-07-21 16:06:20,1374422780,55.43598,-11.90493,165,3,2013-07-21 16:00:00,1374422400,16.88,6,15.6,30,60,55.3366,-9.8758,34,48
149,2013-07-21 17:08:35,1374426515,55.35654,-9.88742,3,2,2013-07-21 17:00:00,1374426000,16.83,6,15.6,30,120,55.3366,-9.8758,34,48
150,2013-07-21 18:06:14,1374429974,55.35146,-10.65452,85,3,2013-07-21 18:00:00,1374429600,16.8,6,15.6,155,0,55.3282,-9.84299999999999,64,44
151,2013-07-21 19:06:10,1374433570,55.3616,-9.82528,5,2,2013-07-21 19:00:00,1374433200,16.84,6,15.6,30,60,55.3282,-9.84299999999999,64,44
152,2013-07-21 20:06:12,1374437172,55.36951,-10.7902,108,2,2013-07-21 20:00:00,1374436800,16.93,5,15.6,30,120,55.3282,-9.84299999999999,64,44
153,2013-07-21 21:06:13,1374440773,55.35654,-9.88742,4,4,2013-07-21 21:00:00,1374440400,16.91,5,15.6,30,0,55.3224,-9.8794,34,44
154,2013-07-21 22:06:09,1374444369,55.3019,-9.93865,2,2,2013-07-21 22:00:00,1374444000,17.08,5,15.6,30,60,55.3224,-9.8794,34,44
155,2013-07-21 23:06:09,1374447969,55.35654,-9.88742,3,8,2013-07-21 23:00:00,1374447600,16.93,5,15.6,30,120,55.3224,-9.8794,34,44
156,2013-07-22 00:06:10,1374451570,55.30698,-9.8766,3,1,2013-07-22 00:00:00,1374451200,16.78,6,15.6,30,0,55.3472,-9.91299999999998,52,44
157,2013-07-22 01:06:09,1374455169,55.36508,-10.14685,73,2,2013-07-22 01:00:00,1374454800,16.7,6,15.6,30,60,55.3472,-9.91299999999998,52,44
158,2013-07-22 02:06:09,1374458769,55.35145,-9.94954,2,1,2013-07-22 02:00:00,1374458400,16.7,4,15.6,30,120,55.3472,-9.91299999999998,52,44
159,2013-07-22 03:06:09,1374462369,55.39112,-8.93326,123,1,2013-07-22 03:00:00,1374462000,16.72,4,15.6,30,0,55.3736,-9.87039999999999,12,44
160,2013-07-22 04:06:13,1374465973,55.3616,-9.82528,3,2,2013-07-22 04:00:00,1374465600,16.67,4,15.6,30,60,55.3736,-9.87039999999999,12,44
161,2013-07-22 05:06:09,1374469569,55.38567,-9.89826,7,1,2013-07-22 05:00:00,1374469200,16.62,4,15.6,30,120,55.3736,-9.87039999999999,12,44
162,2013-07-22 06:06:14,1374473174,55.3616,-9.82528,4,2,2013-07-22 06:00:00,1374472800,16.55,5,15.6,30,0,55.3646,-9.821,52,44
163,2013-07-22 07:06:09,1374476769,55.32743,-9.8766,5,0,2013-07-22 07:00:00,1374476400,16.41,6,15.6,30,60,55.3646,-9.821,52,44
164,2013-07-22 08:06:12,1374480372,55.3616,-9.82528,7,1,2013-07-22 08:00:00,1374480000,16.49,5,15.6,30,120,55.3646,-9.821,52,44
165,2013-07-22 09:06:11,1374483971,55.33248,-9.81452,3,0,2013-07-22 09:00:00,1374483600,16.71,6,15.6,30,0,55.3462,-9.8434,58,44
166,2013-07-22 10:06:13,1374487573,55.33248,-9.81452,1,2,2013-07-22 10:00:00,1374487200,16.79,5,15.6,30,60,55.3462,-9.8434,58,44
167,2013-07-22 11:06:10,1374491170,55.30698,-9.8766,7,3,2013-07-22 11:00:00,1374490800,16.91,5,15.6,30,120,55.3462,-9.8434,58,44
168,2013-07-22 12:06:13,1374494773,55.35654,-9.88742,2,4,2013-07-22 12:00:00,1374494400,17.06,5,15.6,30,0,55.3534,-9.8972,34,48
169,2013-07-22 13:06:09,1374498369,55.32743,-9.8766,5,2,2013-07-22 13:00:00,1374498000,17,6,15.6,30,60,55.3534,-9.8972,34,48
170,2013-07-22 14:06:10,1374501970,55.38057,-9.96044,3,4,2013-07-22 14:00:00,1374501600,16.89,5,15.6,30,120,55.3534,-9.8972,34,48
171,2013-07-22 15:06:10,1374505570,55.3616,-9.82528,2,5,2013-07-22 15:00:00,1374505200,16.96,5,15.6,30,0,55.3818,-9.88419999999999,58,48
172,2013-07-22 16:06:09,1374509169,55.60101,-13.32778,229,3,2013-07-22 16:00:00,1374508800,16.93,5,15.6,30,60,55.3818,-9.88419999999999,58,48
173,2013-07-22 17:06:09,1374512769,55.35654,-9.88742,2,2,2013-07-22 17:00:00,1374512400,16.97,5,15.6,30,120,55.3818,-9.88419999999999,58,48
174,2013-07-22 18:06:11,1374516371,55.53655,-13.17518,220,4,2013-07-22 18:00:00,1374516000,16.97,6,15.6,30,0,55.3848,-9.83339999999998,66,44
175,2013-07-22 19:06:09,1374519969,55.41114,-9.83605,3,3,2013-07-22 19:00:00,1374519600,16.88,6,15.6,30,60,55.3848,-9.83339999999998,66,44
176,2013-07-22 20:06:09,1374523569,55.37308,-10.40644,612,2,2013-07-22 20:00:00,1374523200,16.78,6,15.6,30,120,55.3848,-9.83339999999998,66,44
177,2013-07-22 21:06:10,1374527170,55.3616,-9.82528,2,3,2013-07-22 21:00:00,1374526800,16.66,5,15.6,30,0,55.3714,-9.84479999999999,34,48
178,2013-07-22 22:06:09,1374530769,55.3616,-9.82528,8,1,2013-07-22 22:00:00,1374530400,16.82,6,15.6,30,60,55.3714,-9.84479999999999,34,48
179,2013-07-22 23:06:12,1374534372,55.35654,-9.88742,7,2,2013-07-22 23:00:00,1374534000,16.67,7,15.6,30,120,55.3714,-9.84479999999999,34,48
180,2013-07-23 00:06:14,1374537974,55.35654,-9.88742,4,3,2013-07-23 00:00:00,1374537600,16.54,5,15.6,30,0,55.38,-9.8844,34,48
181,2013-07-23 01:06:11,1374541571,55.28548,-11.7914,141,1,2013-07-23 01:00:00,1374541200,16.59,7,15.6,30,60,55.38,-9.8844,34,48
182,2013-07-23 02:06:09,1374545169,55.41114,-9.83605,3,3,2013-07-23 02:00:00,1374544800,16.48,5,15.6,30,120,55.38,-9.8844,34,48
183,2013-07-23 03:06:10,1374548770,55.46994,-8.9529,102,2,2013-07-23 03:00:00,1374548400,16.46,4,15.6,30,0,55.4024,-9.8708,34,48
184,2013-07-23 04:06:14,1374552374,55.3616,-9.82528,2,4,2013-07-23 04:00:00,1374552000,16.44,5,15.6,30,60,55.4024,-9.8708,34,48
185,2013-07-23 05:06:21,1374555981,55.44294,-8.6308,101,0,2013-07-23 05:00:00,1374555600,16.44,4,15.6,30,120,55.4024,-9.8708,34,48
186,2013-07-23 06:06:13,1374559573,55.41114,-9.83605,2,7,2013-07-23 06:00:00,1374559200,16.56,3,15.6,30,0,55.408,-9.81479999999999,34,48
187,2013-07-23 07:06:09,1374563169,55.49701,-7.68249,171,0,2013-07-23 07:00:00,1374562800,16.66,4,15.6,30,60,55.408,-9.81479999999999,34,48
188,2013-07-23 08:06:09,1374566769,55.41618,-9.77382,1,3,2013-07-23 08:00:00,1374566400,16.74,4,15.6,30,120,55.408,-9.81479999999999,34,48
189,2013-07-23 09:06:10,1374570370,55.40607,-9.89826,3,5,2013-07-23 09:00:00,1374570000,16.81,3,15.6,30,0,55.3974,-9.80879999999999,34,48
190,2013-07-23 10:06:09,1374573969,55.3616,-9.82528,5,0,2013-07-23 10:00:00,1374573600,16.87,4,15.6,30,60,55.3974,-9.80879999999999,34,48
191,2013-07-23 11:06:09,1374577569,55.40607,-9.89826,2,4,2013-07-23 11:00:00,1374577200,16.85,4,15.6,30,120,55.3974,-9.80879999999999,34,48
192,2013-07-23 12:06:12,1374581172,55.38567,-9.89826,2,3,2013-07-23 12:00:00,1374580800,16.76,5,15.6,30,0,55.3886,-9.84739999999999,34,48
193,2013-07-23 13:06:13,1374584773,55.41114,-9.83605,8,2,2013-07-23 13:00:00,1374584400,16.9,5,15.6,30,60,55.3886,-9.84739999999999,34,48
194,2013-07-23 14:06:10,1374588370,55.3616,-9.82528,3,3,2013-07-23 14:00:00,1374588000,16.94,5,15.6,30,120,55.3886,-9.84739999999999,34,48
195,2013-07-23 15:06:11,1374591971,55.38567,-9.89826,3,9,2013-07-23 15:00:00,1374591600,16.76,5,15.6,30,0,55.4058,-9.8494,34,48
196,2013-07-23 16:06:09,1374595569,55.40607,-9.89826,3,5,2013-07-23 16:00:00,1374595200,16.81,4,15.6,30,60,55.4058,-9.8494,34,48
197,2013-07-23 17:06:09,1374599169,55.44029,-9.84685,2,3,2013-07-23 17:00:00,1374598800,17.02,5,15.6,30,120,55.4058,-9.8494,34,48
198,2013-07-23 18:06:09,1374602769,55.65701,-13.28057,236,2,2013-07-23 18:00:00,1374602400,17.01,5,15.6,30,0,55.4236,-9.81039999999999,34,48
199,2013-07-23 19:06:12,1374606372,55.47073,-9.72224,13,2,2013-07-23 19:00:00,1374606000,17.01,5,15.6,30,60,55.4236,-9.81039999999999,34,48
200,2013-07-23 20:06:09,1374609969,55.5875,-12.60453,192,2,2013-07-23 20:00:00,1374609600,16.95,4,15.6,30,120,55.4236,-9.81039999999999,34,48
201,2013-07-23 21:06:11,1374613571,55.41114,-9.83605,1,3,2013-07-23 21:00:00,1374613200,16.84,4,15.6,30,0,55.4176,-9.79059999999998,16,44
202,2013-07-23 22:06:10,1374617170,55.50593,-12.31589,177,3,2013-07-23 22:00:00,1374616800,16.84,5,15.6,30,60,55.4176,-9.79059999999998,16,44
203,2013-07-23 23:06:09,1374620769,55.36663,-9.76311,2,2,2013-07-23 23:00:00,1374620400,16.66,5,15.6,30,120,55.4176,-9.79059999999998,16,44
204,2013-07-24 00:06:29,1374624389,55.3616,-9.82528,2,1,2013-07-24 00:00:00,1374624000,16.59,7,15.6,30,0,55.4042,-9.81439999999998,64,44
205,2013-07-24 01:06:10,1374627970,55.38567,-9.89826,3,4,2013-07-24 01:00:00,1374627600,16.51,5,15.6,30,60,55.4042,-9.81439999999998,64,44
206,2013-07-24 02:06:11,1374631571,55.41114,-9.83605,2,2,2013-07-24 02:00:00,1374631200,16.49,5,15.6,30,120,55.4042,-9.81439999999998,64,44
207,2013-07-24 03:06:12,1374635172,55.36467,-11.49552,126,3,2013-07-24 03:00:00,1374634800,16.48,4,15.6,30,0,55.4182,-9.85039999999998,34,44
208,2013-07-24 04:06:09,1374638769,55.40607,-9.89826,2,0,2013-07-24 04:00:00,1374638400,16.48,4,15.6,30,60,55.4182,-9.85039999999998,34,44
209,2013-07-24 05:06:09,1374642369,55.41618,-9.77382,3,1,2013-07-24 05:00:00,1374642000,16.39,6,15.6,30,120,55.4182,-9.85039999999998,34,44
210,2013-07-24 06:06:07,1374645967,55.44534,-9.78456,2,2,2013-07-24 06:00:00,1374645600,16.29,6,15.6,30,0,55.436,-9.8246,34,48
211,2013-07-24 07:06:16,1374649576,55.51443,-8.32718,117,3,2013-07-24 07:00:00,1374649200,16.44,5,15.6,30,60,55.436,-9.8246,34,48
212,2013-07-24 08:06:09,1374653169,55.44029,-9.84685,3,0,2013-07-24 08:00:00,1374652800,16.45,6,15.6,30,120,55.436,-9.8246,34,48
213,2013-07-24 09:06:13,1374656773,55.41114,-9.83605,12,1,2013-07-24 09:00:00,1374656400,16.38,5,15.6,30,0,55.4316,-9.797,94,44
214,2013-07-24 10:06:09,1374660369,55.44534,-9.78456,4,1,2013-07-24 10:00:00,1374660000,16.36,6,15.6,30,60,55.4316,-9.797,94,44
215,2013-07-24 11:06:19,1374663979,55.41618,-9.77382,3,2,2013-07-24 11:00:00,1374663600,16.34,7,15.6,30,120,55.4316,-9.797,94,44
216,2013-07-24 12:06:11,1374667571,55.44029,-9.84685,4,3,2013-07-24 12:00:00,1374667200,16.38,7,15.6,30,0,55.4124,-9.82499999999999,172,44
217,2013-07-24 13:06:09,1374671169,55.40607,-9.89826,6,1,2013-07-24 13:00:00,1374670800,16.39,7,15.6,30,60,55.4124,-9.82499999999999,172,44
218,2013-07-24 14:06:11,1374674771,55.41114,-9.83605,2,3,2013-07-24 14:00:00,1374674400,16.28,6,15.6,30,120,55.4124,-9.82499999999999,172,44
219,2013-07-24 15:06:13,1374678373,55.43522,-9.90912,2,3,2013-07-24 15:00:00,1374678000,16.19,7,15.6,30,0,55.4204,-9.86679999999998,64,44
220,2013-07-24 16:06:09,1374681969,55.40607,-9.89826,12,2,2013-07-24 16:00:00,1374681600,16.16,7,15.4,30,60,55.4204,-9.86679999999998,64,44
221,2013-07-24 17:06:11,1374685571,55.49488,-9.79531,13,3,2013-07-24 17:00:00,1374685200,16.29,5,15.4,30,120,55.4204,-9.86679999999998,64,44
222,2013-07-24 18:06:12,1374689172,55.77064,-14.84099,326,3,2013-07-24 18:00:00,1374688800,16.4,5,15.4,30,0,55.4496,-9.8424,64,48
223,2013-07-24 19:06:09,1374692769,55.44029,-9.84685,2,3,2013-07-24 19:00:00,1374692400,16.44,5,15.4,30,60,55.4496,-9.8424,64,48
224,2013-07-24 20:06:09,1374696369,55.49488,-9.79531,10,2,2013-07-24 20:00:00,1374696000,16.43,5,15.4,30,120,55.4496,-9.8424,64,48
225,2013-07-24 21:06:10,1374699970,55.49488,-9.79531,5,3,2013-07-24 21:00:00,1374699600,16.33,5,15.4,30,0,55.4572,-9.79419999999999,58,48
226,2013-07-24 22:06:10,1374703570,55.44029,-9.84685,2,2,2013-07-24 22:00:00,1374703200,16.26,6,15.4,30,60,55.4572,-9.79419999999999,58,48
227,2013-07-24 23:06:21,1374707181,55.46571,-9.78456,3,2,2013-07-24 23:00:00,1374706800,16.18,5,15.4,30,120,55.4572,-9.79419999999999,58,48
228,2013-07-25 00:06:09,1374710769,55.44534,-9.78456,2,6,2013-07-25 00:00:00,1374710400,16.12,7,15.4,30,0,55.436,-9.803,64,44
229,2013-07-25 01:06:11,1374714371,55.34978,-14.35787,295,2,2013-07-25 01:00:00,1374714000,16.11,5,15.4,30,60,55.436,-9.803,64,44
230,2013-07-25 02:06:10,1374717970,55.41114,-9.83605,5,1,2013-07-25 02:00:00,1374717600,16.1,5,15.4,30,120,55.436,-9.803,64,44
231,2013-07-25 03:06:09,1374721569,55.27526,-13.15038,223,1,2013-07-25 03:00:00,1374721200,16.12,5,15.4,30,0,55.4368,-9.85079999999999,14,44